Location: Cape Canaveral
(28.3922°N, 80.6077°W)
Time: 23:09:58
(UTC-05:00)

ISS - Visible Passes

Search period start: 29 November 2021 00:00
Search period end: 09 December 2021 00:00
Orbit: 417 x 423 km, 51.6° (Epoch: 29 November)

Date Brightness Start Highest point End Pass type
(mag) Time Alt. Az. Time Alt. Az. Time Alt. Az.
06 Dec -1.9 18:19:04 10° N 18:21:03 15° NE 18:21:03 15° NE visible
07 Dec -3.0 19:07:29 10° NW 19:10:01 47° NW 19:10:01 47° NW visible
08 Dec -3.6 18:20:20 10° NNW 18:23:37 49° NE 18:26:31 13° ESE visible
